Weather History for KOXR - March, 2014

Change the Weather History Date:

Thursday, March 20, 2014

  Actual Average Record
Temperature  
Mean Temperature 58 °F -  
Max Temperature 66 °F 68 °F 86 °F (1984)
Min Temperature 50 °F 47 °F 40 °F (1949)
Degree Days  
Heating Degree Days 7    
Growing Degree Days 8 (Base 50)    
Moisture  
Dew Point 50 °F    
Average Humidity 77    
Maximum Humidity 88    
Minimum Humidity 56    
Precipitation  
Precipitation 0.00 in - - ()
Sea Level Pressure  
Sea Level Pressure 30.00 in    
Wind  
Wind Speed 3 mph (SW)    
Max Wind Speed 13 mph    
Max Gust Speed -    
Visibility 10 miles    
Events      
Averages and records for this station are not official NWS values.
T = Trace of Precipitation, MM = Missing Value Source: NWS Daily Summary

Daily Weather History Graph

Daily Weather History Graph

Search for Another Location

Airport or City:

Trip Planner

Search our weather history database for the weather conditions in past years. The results will help you decide how hot, cold, wet, or windy it might be!

Date:

Astronomy

Mar. 20, 2014 Rise Set
Actual Time 7:00 AM PDT 7:08 PM PDT
Civil Twilight 6:35 AM PDT 7:33 PM PDT
Nautical Twilight 6:06 AM PDT 8:02 PM PDT
Astronomical Twilight 5:36 AM PDT 8:32 PM PDT
Moon 11:21 PM PDT (3/20) 9:20 AM PDT (3/20)
Length of Visible Light 12h 58m
Length of Day
12h 08m
Waning Gibbous, 83% of the Moon is Illuminated
Mar 20
Waning Gibbous
Mar 23
Last Quarter
Mar 30
New
Apr 7
First Quarter
Apr 15
Full

Hourly Weather History & Observations

Time (PDT) Temp. Dew Point Humidity Pressure Visibility Wind Dir Wind Speed Gust Speed Precip Events Conditions
12:51 AM 55.9 °F 46.0 °F 69% 30.05 in 10.0 mi South 3.5 mph - N/A   Clear
1:00 AM 55.4 °F 46.4 °F 72% 30.05 in 10.0 mi Calm Calm - N/A   Partly Cloudy
1:23 AM 57.2 °F 50.0 °F 77% 30.06 in 9.0 mi Variable 3.5 mph - N/A   Mostly Cloudy
1:33 AM 57.2 °F 53.6 °F 88% 30.06 in 9.0 mi SSW 3.5 mph - N/A   Mostly Cloudy
1:51 AM 57.9 °F 54.0 °F 87% 30.06 in 9.0 mi Calm Calm - N/A   Scattered Clouds
2:26 AM 57.2 °F 51.8 °F 82% 30.05 in 10.0 mi South 5.8 mph - N/A   Mostly Cloudy
2:51 AM 57.0 °F 53.1 °F 87% 30.04 in 10.0 mi Calm Calm - N/A   Mostly Cloudy
3:51 AM 53.1 °F 46.9 °F 80% 30.02 in 10.0 mi Calm Calm - N/A   Mostly Cloudy
4:25 AM 51.8 °F 46.4 °F 82% 30.02 in 10.0 mi Calm Calm - N/A   Partly Cloudy
4:51 AM 52.0 °F 46.9 °F 83% 30.02 in 10.0 mi Calm Calm - N/A   Partly Cloudy
5:41 AM 51.8 °F 44.6 °F 76% 30.02 in 10.0 mi Calm Calm - N/A   Mostly Cloudy
5:51 AM 51.1 °F 45.0 °F 80% 30.02 in 10.0 mi ENE 3.5 mph - N/A   Mostly Cloudy
6:51 AM 50.0 °F 41.0 °F 71% 30.03 in 10.0 mi Calm Calm - N/A   Mostly Cloudy
7:31 AM 50.0 °F 41.0 °F 71% 30.03 in 10.0 mi East 3.5 mph - N/A   Scattered Clouds
7:51 AM 50.0 °F 41.0 °F 71% 30.03 in 10.0 mi ENE 3.5 mph - N/A   Clear
8:51 AM 54.0 °F 43.0 °F 66% 30.02 in 10.0 mi ENE 4.6 mph - N/A   Clear
9:51 AM 59.0 °F 48.0 °F 67% 30.02 in 10.0 mi Calm Calm - N/A   Clear
10:51 AM 61.0 °F 50.0 °F 67% 30.02 in 10.0 mi SW 5.8 mph - N/A   Clear
11:51 AM 62.1 °F 52.0 °F 70% 30.02 in 10.0 mi SSW 5.8 mph - N/A   Clear
12:51 PM 63.0 °F 53.1 °F 70% 30.01 in 10.0 mi Variable 6.9 mph - N/A   Clear
1:51 PM 63.0 °F 53.1 °F 70% 29.99 in 10.0 mi SSW 9.2 mph - N/A   Clear
2:51 PM 64.0 °F 53.1 °F 67% 29.97 in 10.0 mi WSW 9.2 mph - N/A   Clear
3:51 PM 66.0 °F 50.0 °F 56% 29.95 in 10.0 mi West 12.7 mph - N/A   Clear
4:51 PM 62.1 °F 54.0 °F 75% 29.95 in 10.0 mi West 11.5 mph - N/A   Clear
5:51 PM 60.1 °F 53.1 °F 78% 29.94 in 10.0 mi West 10.4 mph - N/A   Clear
6:51 PM 59.0 °F 53.1 °F 81% 29.94 in 10.0 mi WSW 8.1 mph - N/A   Clear
7:14 PM 57.2 °F 53.6 °F 88% 29.94 in 9.0 mi West 9.2 mph - N/A   Scattered Clouds
7:51 PM 57.0 °F 53.1 °F 87% 29.95 in 9.0 mi West 6.9 mph - N/A   Scattered Clouds
8:11 PM 57.2 °F 53.6 °F 88% 29.95 in 9.0 mi West 3.5 mph - N/A   Mostly Cloudy
8:51 PM 57.0 °F 53.1 °F 87% 29.96 in 9.0 mi Calm Calm - N/A   Overcast
9:47 PM 57.2 °F 51.8 °F 82% 29.96 in 10.0 mi Calm Calm - N/A   Overcast
9:51 PM 57.0 °F 52.0 °F 83% 29.97 in 10.0 mi Calm Calm - N/A   Overcast
10:26 PM 57.2 °F 51.8 °F 82% 29.96 in 9.0 mi Calm Calm - N/A   Scattered Clouds
10:51 PM 55.9 °F 52.0 °F 87% 29.96 in 9.0 mi Calm Calm - N/A   Clear
11:51 PM 57.0 °F 52.0 °F 83% 29.96 in 9.0 mi Calm Calm - N/A   Partly Cloudy